Regional Weather Roundup
Issued by NWS San Angelo, TX

Home | Current Version | Previous Version | Text Only | Print | Product List | Glossary On
Versions: 1 2 3 4 5 6 7 8 9 10 11 12 13 14 15 16 17 18 19 20 21 22 23 24 25 26 27 28 29 30 31 32 33 34 35 36 37 38 39 40 41 42 43 44 45 46 47 48 49 50
000
ASUS44 KSJT 250011
RWRSJT
WEST CENTRAL TEXAS REGIONAL WEATHER ROUNDUP
NATIONAL WEATHER SERVICE SAN ANGELO TX
700 PM CDT SAT SEP 24 2016

NOTE: "FAIR" INDICATES FEW OR NO CLOUDS BELOW 12,000 FEET WITH NO
SIGNIFICANT WEATHER AND/OR OBSTRUCTIONS TO VISIBILITY.

TXZ049-054-064>066-071>073-076>078-098-099-113-114-127-128-139-140-
154-155-168>170-250100
...LOCATIONS ACROSS WEST CENTRAL TEXAS...

CITY           SKY/WX    TMP DP  RH WIND       PRES   REMARKS
SAN ANGELO     CLEAR     89  63  41 S10G21    29.86S
ABILENE        CLOUDY    83  68  60 S9        29.88R
DYESS AFB      CLOUDY    78  67  69 W12       29.88R
JUNCTION       CLEAR     88  64  44 S15       29.89S
SWEETWATER     CLOUDY    67  67 100 NW8       29.98  THUNDER
BROWNWOOD      PTCLDY    88  64  45 SE12G21   29.88R
COLEMAN        CLEAR     89  61  39 S9        29.88S
SONORA         CLOUDY    86  64  48 S12       29.95S
OZONA          FAIR      82  63  51 S16G23    29.93F
BRADY          NOT AVBL
$$

TEXAS PANHANDLE/OKLAHOMA PANHANDLE

CITY           SKY/WX    TMP DP  RH WIND       PRES   REMARKS
AMARILLO       CLEAR     80  40  23 SW16      29.95R
BORGER         CLEAR     84  47  27 S12       29.90R
CANADIAN       MOCLDY    80  67  62 SE13      29.91R
DALHART        CLEAR     77  28  16 SW9       29.96R
DUMAS          CLEAR     80  29  15 W6        29.93R
GUYMON         NOT AVBL
HEREFORD       CLEAR     80  37  20 W10       29.97R
PAMPA          CLEAR     79  53  39 S8        29.94R
PERRYTON       CLEAR     82  49  31 S8        29.90R
$$

SOUTHERN PANHANDLE/SOUTH PLAINS/ROLLING PLAINS

CITY           SKY/WX    TMP DP  RH WIND       PRES   REMARKS
LUBBOCK        CLOUDY    76  65  68 SE12      29.94S
SNYDER           N/A     70  66  87 CALM      29.95R THUNDER
CHILDRESS      LGT RAIN  72  68  87 SE9       29.90S
SEMINOLE       MOCLDY    79  56  44 S5        29.95S
$$

PERMIAN BASIN

CITY           SKY/WX    TMP DP  RH WIND       PRES   REMARKS
MIDLAND        PTCLDY    83  54  36 W8        29.93R
ODESSA         CLOUDY    82  53  36 W6        29.95R
WINK           CLOUDY    85  50  29 S8        29.90S
$$

FAR WEST/SOUTHWEST MOUNTAINS/TRANS PECOS

CITY           SKY/WX    TMP DP  RH WIND       PRES   REMARKS
ALPINE         MOCLDY    70  60  68 NE5       30.09S
DRYDEN           N/A     76  73  91 SE10      29.90S
EL PASO        MOSUNNY   82  38  20 NW12G22   29.97F
FORT STOCKTON  LGT RAIN  75  58  55 W12       29.95R
GUADALUPE PASS SUNNY     75  42  30 SW23G29   30.08S
MARFA          PTCLDY   N/A N/A N/A CALM      30.05F
PECOS          CLOUDY    85  53  33 SE12      29.90S
$$

DALLAS/FORT WORTH METROPLEX

CITY           SKY/WX    TMP DP  RH WIND       PRES   REMARKS
DFW AIRPORT    PTCLDY    88  70  55 SE15      29.88S
FTW MEACHAM    CLEAR     88  70  55 SE14      29.88R
DAL-EXECUTIVE  CLOUDY    86  72  62 SE13      29.89S
GRAND PRAIRIE  CLEAR     86  72  62 E9        29.90S
ADDISON        CLEAR     88  70  55 SE13G21   29.90S
MESQUITE       CLEAR     88  68  51 SE13      29.91R
LANCASTER      PTCLDY    90  70  51 SE12      29.91R
$$

NORTH CENTRAL TEXAS

CITY           SKY/WX    TMP DP  RH WIND       PRES   REMARKS
SHRMAN/DENISON CLEAR     86  70  58 SE10G18   29.91F
GAINESVILLE      N/A     83  69  63 SE7       29.92R
BRIDGEPORT     PTCLDY    84  72  66 SE10G17   29.90R
DENTON         CLEAR     85  70  60 SE12      29.88F
WAXAHACHIE     PTCLDY    86  72  63 SE10      29.91R
GRANBURY       PTCLDY    89  70  54 SE15G21   29.89R
$$

WESTERN NORTH TEXAS

CITY           SKY/WX    TMP DP  RH WIND       PRES   REMARKS
WICHITA FALLS  CLOUDY    83  69  62 SE9       29.87R
VERNON         CLOUDY    74  66  75 S15       29.89S THUNDER
BRECKENRIDGE   PTCLDY    88  65  46 SE9       29.87R
COMANCHE       PTCLDY    87  69  54 S13G23    29.89R
$$

CENTRAL AND SOUTH CENTRAL TEXAS

CITY           SKY/WX    TMP DP  RH WIND       PRES   REMARKS
AUSTIN/BERGSTM CLOUDY    83  76  79 SE5       29.90S
WACO           MOCLDY    86  71  60 SE21G28   29.91R
HILLSBORO      MOCLDY    83  74  72 SE12      29.90R
TEMPLE         CLOUDY    77  72  84 S13       29.92R
KILLEEN-GRAY   PTCLDY    75  73  91 SE10      29.91F
FORT HOOD      CLOUDY    76  68  77 S7        29.90R
GEORGETOWN     CLEAR     79  73  83 E6        29.92S
LAGO VISTA     FAIR      82  71  70 SE5       29.94S
SAN MARCOS     PTCLDY    82  72  69 SE12      29.93R
NEW BRAUNFELS  CLOUDY    85  73  67 SE14      29.89S
RANDOLPH AFB   CLOUDY    84  75  73 E15       29.89S
SAN ANTONIO    MOCLDY    85  71  63 E14       29.89S
STINSON        PTCLDY    88  72  58 E14       29.85S
PLEASANTON     NOT AVBL
LA GRANGE      PTCLDY    85  76  75 SE8       29.91R
GIDDINGS       CLOUDY    82  71  68 S5        29.96R
$$

EAST TEXAS

CITY           SKY/WX    TMP DP  RH WIND       PRES   REMARKS
PARIS          CLEAR     86  64  48 SE12      29.93S
CLARKSVILLE    NOT AVBL
TYLER          CLEAR     88  68  51 SE13      29.93S
LONGVIEW       CLEAR     86  68  54 SE9       29.93F
PALESTINE      CLEAR     86  72  63 SE8       29.94S
NACOGDOCHES    CLEAR     84  72  65 S5        29.93S
$$

TEXAS HILL COUNTRY AND EDWARDS PLATEAU

CITY           SKY/WX    TMP DP  RH WIND       PRES   REMARKS
LLANO          MOCLDY    84  73  70 S8        29.93R
HORSESHOE BAY  FAIR      84  71  64 SE13G18   29.91S
KERRVILLE      CLEAR     83  71  66 SE10G17   29.92S
FREDERICKSBRG  CLEAR     81  67  63 SE9       29.94R
ROCKSPRINGS    PTCLDY    82  66  57 SE13      29.95S
HONDO          PTCLDY    88  72  58 E13       29.86S
UVALDE         MOCLDY    88  68  52 E7        29.85S
DEL RIO        MOCLDY    87  70  56 CALM      29.82S
$$

SOUTHEAST TEXAS

CITY           SKY/WX    TMP DP  RH WIND       PRES   REMARKS
COLLEGE STN    CLOUDY    78  75  90 E6        29.94R
CALDWELL       NOT AVBL
CROCKETT       NOT AVBL
BRENHAM        PTCLDY    82  75  80 E9        29.94R
HUNTSVILLE     CLOUDY    77  73  87 VRB5      29.95F
CONROE         CLOUDY    77  74  90 CALM      29.96F
HOUSTON BUSH   CLOUDY    80  76  87 S6        29.93F
HOUSTON HOBBY  MOCLDY    81  76  84 CALM      29.94S
PERLAND        PTCLDY    84  76  76 SE7       29.95F
WHARTON        CLOUDY    80  76  86 SE6       29.94F THUNDER
$$

THE UPPER TEXAS COAST

CITY           SKY/WX    TMP DP  RH WIND       PRES   REMARKS
ORANGE         MOCLDY    83  70  64 SE7       29.97F
PORT ARTHUR    CLOUDY    82  74  76 SE8       29.94F
GALVESTON      CLOUDY    82  77  84 SE8       29.93F
ANGLETON       CLOUDY    82  77  84 S8        29.93F
BAY CITY       CLOUDY    83  77  82 SE3       29.94F
$$

TEXAS COASTAL BEND, RIO GRANDE PLAINS DEEP SOUTH TEXAS

CITY           SKY/WX    TMP DP  RH WIND       PRES   REMARKS
VICTORIA       PTCLDY    81  74  79 E7        29.91S
BEEVILLE       FAIR      87  74  65 SE13G18   29.87R
ROCKPORT       CLOUDY    87  77  72 SE16      29.88R
PORT ARANSAS   PTCLDY    86  77  72 SE13G20   29.88R
PORT LAVACA    HAZE      84  77  79 E13G18    29.91S VSB 1/4
CORPUS CHRISTI PTCLDY    87  77  72 SE16      29.86R
KINGSVILLE NAS CLEAR     87  75  67 SE15G29   29.84
COTULLA        PTCLDY    96  64  34 SE14      29.80S
LAREDO         CLEAR     96  65  35 SE16G24   29.79R
BROWNSVILLE    CLEAR     88  74  63 S18       29.86R
PORT ISABEL    CLEAR     87  74  64 SE18      29.85S
HEBBRONVILLE   PTCLDY    93  69  45 SE17G25   29.83R
MCALLEN        CLEAR     93  70  46 SE20      29.82S
WESLACO        CLEAR     90  71  52 SE12G23   29.82R
FALFURRIAS     CLEAR     90  71  52 SE12G17   29.83R
EDINBURG       CLEAR     92  64  38 SE13      29.82S
$$



USA.gov is the U.S. government's official web portal to all federal, state and local government web resources and services.